Boneville, GA

6:56 PM EDT on August 24, 2016 (GMT -0400)
Thomson-McDuffie County

Weather History for KHQU - March, 2012

Change the Weather History Date:

Monday, March 5, 2012

  Actual Average (KDBN) Record (KDBN)
Temperature  
Mean Temperature 50 °F -  
Max Temperature 62 °F 69 °F 86 °F (1955)
Min Temperature 39 °F 42 °F 20 °F (1978)
Degree Days  
Heating Degree Days 14    
Moisture  
Dew Point 24 °F    
Average Humidity 35    
Maximum Humidity 65    
Minimum Humidity 13    
Precipitation  
Precipitation 0.00 in - - ()
Sea Level Pressure  
Sea Level Pressure 30.20 in    
Wind  
Wind Speed 10 mph (WSW)    
Max Wind Speed 23 mph    
Max Gust Speed 37 mph    
Visibility 10 miles    
Events      
Averages and records for this station are not official NWS values.
T = Trace of Precipitation, MM = Missing Value Source: NWS Daily Summary

Daily Weather History Graph

Daily Weather History Graph

Search for Another Location

Airport or City:

Trip Planner

Search our weather history database for the weather conditions in past years. The results will help you decide how hot, cold, wet, or windy it might be!

Date:

Astronomy

Mar. 05, 2012 Rise Set
Actual Time 6:52 AM EST 6:30 PM EST
Civil Twilight 6:27 AM EST 6:55 PM EST
Nautical Twilight 5:59 AM EST 7:24 PM EST
Astronomical Twilight 5:30 AM EST 7:53 PM EST
Moon 3:53 PM EST (3/5) 4:44 AM EST (3/5)
Length of Visible Light 12h 27m
Length of Day
11h 37m
Waxing Gibbous, 91% of the Moon is Illuminated
Mar 5
Waxing Gibbous
Mar 8
Full
Mar 14
Last Quarter
Mar 22
New
Mar 30
First Quarter

Hourly Weather History & Observations

Time (EST) Temp. Windchill Dew Point Humidity Pressure Visibility Wind Dir Wind Speed Gust Speed Precip Events Conditions
12:15 AM 39.2 °F 35.0 °F 28.4 °F 65% 30.13 in 10.0 mi SSW 5.8 mph - N/A   Clear
12:35 AM 41.0 °F 38.0 °F 28.4 °F 61% 30.13 in 10.0 mi South 4.6 mph - N/A   Clear
12:55 AM 41.0 °F 37.1 °F 28.4 °F 61% 30.13 in 10.0 mi South 5.8 mph - N/A   Clear
1:15 AM 42.8 °F 38.6 °F 26.6 °F 53% 30.13 in 10.0 mi SSW 6.9 mph - N/A   Clear
1:35 AM 42.8 °F 40.1 °F 26.6 °F 53% 30.12 in 10.0 mi South 4.6 mph - N/A   Clear
1:55 AM 42.8 °F 38.0 °F 28.4 °F 57% 30.12 in 10.0 mi SSW 8.1 mph - N/A   Clear
2:15 AM 42.8 °F 37.5 °F 26.6 °F 53% 30.11 in 10.0 mi SSW 9.2 mph - N/A   Clear
2:35 AM 44.6 °F 39.7 °F 26.6 °F 49% 30.11 in 10.0 mi SSW 9.2 mph 16.1 mph N/A   Clear
2:55 AM 44.6 °F 40.7 °F 26.6 °F 49% 30.09 in 10.0 mi SSW 6.9 mph - N/A   Clear
3:15 AM 44.6 °F 41.4 °F 26.6 °F 49% 30.08 in 10.0 mi SSW 5.8 mph - N/A   Clear
3:35 AM 44.6 °F 39.2 °F 26.6 °F 49% 30.08 in 10.0 mi SSW 10.4 mph - N/A   Clear
3:55 AM 46.4 °F 41.5 °F 26.6 °F 46% 30.07 in 10.0 mi SSW 10.4 mph - N/A   Clear
4:15 AM 46.4 °F 41.9 °F 26.6 °F 46% 30.07 in 10.0 mi SSW 9.2 mph 17.3 mph N/A   Clear
4:35 AM 46.4 °F 41.9 °F 26.6 °F 46% 30.07 in 10.0 mi SSW 9.2 mph 19.6 mph N/A   Clear
4:55 AM 46.4 °F 40.1 °F 26.6 °F 46% 30.06 in 10.0 mi SSW 15.0 mph 19.6 mph N/A   Clear
5:15 AM 48.2 °F - 26.6 °F 43% 30.06 in 10.0 mi SSW 12.7 mph 20.7 mph N/A   Clear
5:35 AM 48.2 °F - 26.6 °F 43% 30.06 in 10.0 mi SW 12.7 mph 21.9 mph N/A   Clear
5:55 AM 50.0 °F - 28.4 °F 43% 30.07 in 10.0 mi SSW 12.7 mph 20.7 mph N/A   Clear
6:15 AM 48.2 °F - 28.4 °F 46% 30.09 in 10.0 mi SW 12.7 mph 19.6 mph N/A   Clear
6:35 AM 48.2 °F - 28.4 °F 46% 30.11 in 10.0 mi SW 10.4 mph 16.1 mph N/A   Clear
6:55 AM 48.2 °F - 28.4 °F 46% 30.11 in 10.0 mi SW 9.2 mph 17.3 mph N/A   Clear
7:15 AM 48.2 °F - 28.4 °F 46% 30.12 in 10.0 mi SW 6.9 mph 16.1 mph N/A   Clear
7:35 AM 50.0 °F - 30.2 °F 47% 30.12 in 10.0 mi SSW 6.9 mph - N/A   Clear
7:55 AM 50.0 °F - 30.2 °F 47% 30.13 in 10.0 mi SW 9.2 mph - N/A   Clear
8:15 AM 51.8 °F - 30.2 °F 44% 30.14 in 10.0 mi WSW 9.2 mph - N/A   Clear
8:35 AM 53.6 °F - 30.2 °F 41% 30.15 in 10.0 mi SW 12.7 mph 19.6 mph N/A   Clear
8:55 AM 55.4 °F - 32.0 °F 41% 30.15 in 10.0 mi WSW 9.2 mph 20.7 mph N/A   Clear
9:15 AM 59.0 °F - 32.0 °F 36% 30.16 in 10.0 mi West 11.5 mph 27.6 mph N/A   Clear
9:35 AM 59.0 °F - 30.2 °F 34% 30.17 in 10.0 mi West 12.7 mph 24.2 mph N/A   Clear
9:55 AM 59.0 °F - 30.2 °F 34% 30.19 in 10.0 mi WNW 21.9 mph 32.2 mph N/A   Clear
10:15 AM 60.8 °F - 30.2 °F 31% 30.19 in 10.0 mi West 18.4 mph 23.0 mph N/A   Clear
10:35 AM 60.8 °F - 26.6 °F 27% 30.20 in 10.0 mi WNW 16.1 mph 27.6 mph N/A   Clear
10:55 AM 60.8 °F - 23.0 °F 23% 30.22 in 10.0 mi WNW 17.3 mph 35.7 mph N/A   Clear
11:15 AM 60.8 °F - 19.4 °F 20% 30.24 in 10.0 mi WNW 21.9 mph 36.8 mph N/A   Clear
11:35 AM 60.8 °F - 21.2 °F 22% 30.25 in 10.0 mi WNW 23.0 mph 34.5 mph N/A   Clear
11:55 AM 60.8 °F - 21.2 °F 22% 30.26 in 10.0 mi WNW 15.0 mph 26.5 mph N/A   Clear
12:15 PM 60.8 °F - 8.6 °F 13% 30.28 in 10.0 mi WNW 21.9 mph 32.2 mph N/A   Clear
12:35 PM 60.8 °F - 8.6 °F 13% 30.28 in 10.0 mi WNW 19.6 mph 32.2 mph N/A   Clear
12:55 PM 60.8 °F - 12.2 °F 15% 30.29 in 10.0 mi NW 16.1 mph 25.3 mph N/A   Clear
1:15 PM 60.8 °F - 12.2 °F 15% 30.28 in 10.0 mi NW 15.0 mph 25.3 mph N/A   Clear
1:35 PM 60.8 °F - 15.8 °F 17% 30.28 in 10.0 mi West 16.1 mph 25.3 mph N/A   Clear
1:55 PM 62.6 °F - 14.0 °F 15% 30.29 in 10.0 mi WNW 13.8 mph 19.6 mph N/A   Clear
2:15 PM 60.8 °F - 17.6 °F 19% 30.28 in 10.0 mi West 11.5 mph 20.7 mph N/A   Clear
2:35 PM 60.8 °F - 17.6 °F 19% 30.29 in 10.0 mi NW 15.0 mph 24.2 mph N/A   Clear
2:55 PM 62.6 °F - 17.6 °F 18% 30.29 in 10.0 mi NW 11.5 mph 19.6 mph N/A   Clear
3:15 PM 62.6 °F - 15.8 °F 16% 30.29 in 10.0 mi West 13.8 mph 24.2 mph N/A   Clear
3:35 PM 62.6 °F - 17.6 °F 18% 30.29 in 10.0 mi West 15.0 mph 23.0 mph N/A   Clear
3:55 PM 62.6 °F - 19.4 °F 19% 30.30 in 10.0 mi NW 15.0 mph 19.6 mph N/A   Clear
4:15 PM 60.8 °F - 19.4 °F 20% 30.30 in 10.0 mi West 12.7 mph 21.9 mph N/A   Clear
4:35 PM 60.8 °F - 19.4 °F 20% 30.31 in 10.0 mi West 9.2 mph 21.9 mph N/A   Clear
4:55 PM 60.8 °F - 19.4 °F 20% 30.32 in 10.0 mi WNW 9.2 mph 17.3 mph N/A   Clear
5:15 PM 60.8 °F - 21.2 °F 22% 30.33 in 10.0 mi West 6.9 mph 11.5 mph N/A   Clear
5:35 PM 60.8 °F - 19.4 °F 20% 30.34 in 10.0 mi WNW 9.2 mph - N/A   Clear
5:55 PM 59.0 °F - 21.2 °F 23% 30.35 in 10.0 mi West 9.2 mph - N/A   Clear
6:15 PM 59.0 °F - 21.2 °F 23% 30.36 in 10.0 mi West 6.9 mph - N/A   Clear
6:35 PM 55.4 °F - 21.2 °F 26% 30.38 in 10.0 mi West 4.6 mph - N/A   Clear
6:55 PM 53.6 °F - 23.0 °F 30% 30.39 in 10.0 mi West 3.5 mph - N/A   Clear
7:15 PM 50.0 °F - 26.6 °F 40% 30.39 in 10.0 mi Calm Calm - N/A   Clear
7:35 PM 48.2 °F - 28.4 °F 46% 30.41 in 10.0 mi Calm Calm - N/A   Clear
7:55 PM 46.4 °F 45.2 °F 30.2 °F 53% 30.42 in 10.0 mi NNW 3.5 mph - N/A   Clear
8:15 PM 44.6 °F - 30.2 °F 57% 30.43 in 10.0 mi Calm Calm - N/A   Clear
8:35 PM 44.6 °F - 28.4 °F 53% 30.43 in 10.0 mi Calm Calm - N/A   Clear
8:55 PM 42.8 °F 41.1 °F 30.2 °F 61% 30.44 in 10.0 mi WNW 3.5 mph - N/A   Clear
9:15 PM 41.0 °F - 32.0 °F 70% 30.46 in 10.0 mi Calm Calm - N/A   Clear
9:35 PM 41.0 °F - 30.2 °F 65% 30.46 in 10.0 mi Calm Calm - N/A   Clear
9:55 PM 37.4 °F - 30.2 °F 75% 30.48 in 10.0 mi Calm Calm - N/A   Clear
10:15 PM 37.4 °F - 30.2 °F 75% 30.49 in 10.0 mi Calm Calm - N/A   Clear
10:35 PM 37.4 °F - 32.0 °F 81% 30.49 in 10.0 mi Calm Calm - N/A   Clear
10:55 PM 37.4 °F - 32.0 °F 81% 30.51 in 10.0 mi Calm Calm - N/A   Clear
11:15 PM 35.6 °F - 30.2 °F 81% 30.51 in 10.0 mi Calm Calm - N/A   Clear
11:35 PM 35.6 °F - 30.2 °F 81% 30.51 in 10.0 mi Calm Calm - N/A   Clear
11:55 PM 35.6 °F - 30.2 °F 81% 30.51 in 10.0 mi Calm Calm - N/A   Clear